1290300634484,0.000135698
1290300694484,0.000134963
1290300754484,0.000135199
1290300814484,0.000134905
1290300874484,0.000134383
1290304234495,0.000135479
1290304294495,0.000136119
1290304354495,0.000134153
1290304414495,0.000136048
1290304474495,0.000134503
1290307834505,0.000135587
1290307894505,0.000134861
1290307954505,0.000135531
1290308014505,0.000135589
1290308074505,0.000135151
1290311434516,0.000134873
1290311494516,0.000135235
1290311554516,0.000134714
1290311614516,0.000134983
1290311674516,0.000133631
1290315034527,0.000133766
1290315094527,0.000134235
1290315154527,0.000134302
1290315214527,0.000133992
1290315274527,0.000133907
1290318634537,0.000134856
1290318694537,0.000133151
1290318754537,0.000133639
1290318814537,0.000132885
1290318874537,0.000133336
1290318934537,0.000134139
1290318994537,0.000133853
1290319054537,0.000133241
1290319114537,0.000133603
1290319174537,0.000133040
1290319234548,0.000133527
1290319294548,0.000134421
1290319354548,0.000134164
1290319414548,0.000132972
1290319474548,0.000133427
1290319534548,0.000132997
1290319594548,0.000133445
1290319654548,0.000133276
1290319714548,0.000132940
1290319774548,0.000132954
1290319834548,0.000133192
1290319894548,0.000133467
1290319954548,0.000133108
1290320014548,0.000134422
1290320074548,0.000133283
1290320134548,0.000133305
1290320194548,0.000132846
1290320254548,0.000132982
1290320314548,0.000134120
1290320374548,0.000134331
1290320434548,0.000132867
1290320494548,0.000133404
1290320554548,0.000132158
1290320614548,0.000133253
1290320674548,0.000133504
1290320734548,0.000133597
1290320794548,0.000133568
1290320854548,0.000133845
1290320914548,0.000133753
1290320974548,0.000133660
1290321034548,0.000133559
1290321094548,0.000133228
1290321154548,0.000133687
1290321214548,0.000133536
1290321274548,0.000133875
1290321334548,0.000133016
1290321394548,0.000134092
1290321454548,0.000133407
1290321514548,0.000132908
1290321574548,0.000134201
1290321634548,0.000133904
1290321694548,0.000133524
1290321754548,0.000133487
1290321814548,0.000134211
1290321874548,0.000133967
1290321934548,0.000134124
1290321994548,0.000133514
1290322054548,0.000133435
1290322114548,0.000133585
1290322174548,0.000133911
1290322234548,0.000133931
1290322294548,0.000133873
1290322354548,0.000133926
1290322414548,0.000134700
1290322474548,0.000133623
1290322534548,0.000134889
1290322594548,0.000133569
1290322654548,0.000133445
1290322714548,0.000133493
1290322774548,0.000134061
1290322834559,0.000133463
1290322894559,0.000133537
1290322954559,0.000133442
1290323014559,0.000133529
1290323074559,0.000133129
1290323134559,0.000132983
1290323194559,0.000133578
1290323254559,0.000133606
1290323314559,0.000133069
1290323374559,0.000133936
1290323434559,0.000133146
1290323494559,0.000134098
1290323554559,0.000133733
1290323614559,0.000133403
1290323674559,0.000134397
1290323734559,0.000133374
1290323794559,0.000133546
1290323854559,0.000133118
1290323914559,0.000132373
1290323974559,0.000133613
1290324034559,0.000133963
1290324094559,0.000133208
1290324154559,0.000133555
1290324214559,0.000133921
1290324274559,0.000133814
1290324334559,0.000134489
1290324394559,0.000133762
1290324454559,0.000133565
1290324514559,0.000134130
1290324574559,0.000133368
1290324634559,0.000133798
1290324694559,0.000133948
1290324754559,0.000133771
1290324814559,0.000133580
1290324874559,0.000134867
1290324934559,0.000133358
1290324994559,0.000134249
1290325054559,0.000134057
1290325114559,0.000134411
1290325174559,0.000134373
1290325234559,0.000134797
1290325294559,0.000134329
1290325354559,0.000134940
1290325414559,0.000134253
1290325474559,0.000133912
1290325534559,0.000134237
1290325594559,0.000133449
1290325654559,0.000133627
1290325714559,0.000134856
1290325774559,0.000133947
1290325834559,0.000133025
1290325894559,0.000134384
1290325954559,0.000132869
1290326014559,0.000134952
1290326074559,0.000133629
1290326134559,0.000133862
1290326194559,0.000133756
1290326254559,0.000132967
1290326314559,0.000133963
1290326374559,0.000133842
1290326434571,0.000134236
1290326494571,0.000133461
1290326554571,0.000134438
1290326614571,0.000133616
1290326674571,0.000134648
1290326734571,0.000134259
1290326794571,0.000134163
1290326854571,0.000134860
1290326914571,0.000134065
1290326974571,0.000134256
1290327034571,0.000134701
1290327094571,0.000134147
1290327154571,0.000134866
1290327214571,0.000134811
1290327274571,0.000134813
1290327334571,0.000135080
1290327394571,0.000134914
1290327454571,0.000135323
1290327514571,0.000134628
1290327574571,0.000134444
1290327634571,0.000135322
1290327694571,0.000133884
1290327754571,0.000134302
1290327814571,0.000133726
1290327874571,0.000133280
1290327934571,0.000134283
1290327994571,0.000134100
1290328054571,0.000133992
1290328114571,0.000134626
1290328174571,0.000133346
1290328234571,0.000134190
1290328294571,0.000134172
1290328354571,0.000133764
1290328414571,0.000134355
1290328474571,0.000133882
1290328534571,0.000134200
1290328594571,0.000133182
1290328654571,0.000133688
1290328714571,0.000132869
1290328774571,0.000132733
1290328834571,0.000134326
1290328894571,0.000133293
1290328954571,0.000133072
1290329014571,0.000133125
1290329074571,0.000133415
1290329134571,0.000133290
1290329194571,0.000133362
1290329254571,0.000132682
1290329314571,0.000133335
1290329374571,0.000134281
1290329434571,0.000133303
1290329494571,0.000133724
1290329554571,0.000132793
1290329614571,0.000132889
1290329674571,0.000133100
1290333034582,0.000133325
1290333094582,0.000132155
1290333154582,0.000133099
1290333214582,0.000132129
1290333274582,0.000132799
1290336634594,0.000132128
1290336694594,0.000132158
1290336754594,0.000131477
1290336814594,0.000132186
1290336874594,0.000132210
1290340234606,0.000132254
1290340294606,0.000133722
1290340354606,0.000132971
1290340414606,0.000133991
1290340474606,0.000132983
1290343834618,0.000132776
1290343894618,0.000132095
1290343954618,0.000132690
1290344014618,0.000133217
1290344074618,0.000133312
1290347434631,0.000133736
1290347494630,0.000132911
1290347554630,0.000134343
1290347614631,0.000133729
1290347674631,0.000133721
1290351034643,0.000133404
1290351094643,0.000132113
1290351154643,0.000133228
1290351214643,0.000133286
1290351274643,0.000132086
1290354634656,0.000132824
1290354694656,0.000133212
1290354754656,0.000134176
1290354814656,0.000133676
1290354874656,0.000134386
1290358234668,0.000134474
1290358294668,0.000134635
1290358354668,0.000134571
1290358414668,0.000134755
1290358474668,0.000135174
1290361834681,0.000134652
1290361894681,0.000134892
1290361954681,0.000135014
1290362014681,0.000135516
1290362074681,0.000135048
1290365434693,0.000135129
1290365494693,0.000136111
1290365554693,0.000135189
1290365614693,0.000133803
1290365674693,0.000135509
1290369034705,0.000135987
1290369094705,0.000136196
1290369154705,0.000136727
1290369214705,0.000135405
1290369274705,0.000136673
1290372634716,0.000136786
1290372694716,0.000136412
1290372754716,0.000136738
1290372814716,0.000136193
1290372874716,0.000137458
1290376234728,0.000136910
1290376294728,0.000135348
1290376354728,0.000136039
1290376414728,0.000136496
1290376474728,0.000137058
1290379834739,0.000135429
1290379894739,0.000135787
1290379954739,0.000136203
1290380014739,0.000136629
1290380074739,0.000135352
1290383434751,0.000136552
1290383494751,0.000135198
1290383554751,0.000134750
1290383614751,0.000135259
1290383674751,0.000136566
